Location: Hastringsfeld
(50.9620°N, 10.4787°E)
Time: 11:27:15
(UTC+00:00)

CBERS-1 - Pass Details

Date: 26 September 2023
Orbit: 768 x 774 km, 98.8° (Epoch: 28 November)

Event Time Altitude Azimuth Distance (km) Brightness Sun altitude
Rises 04:05:35 0° 11° (N) 3,257 7.6 -10.9°
Reaches altitude 10° 04:07:58 10° 6° (N) 2,327 6.7 -10.5°
Maximum altitude 04:12:52 48° 294° (WNW) 1,011 4.3 -9.8°
Drops below altitude 10° 04:17:44 10° 221° (SW) 2,316 6.0 -9.0°
Sets 04:20:06 0° 216° (SW) 3,240 6.8 -8.6°
Enters shadow 04:20:16 -1° 215° (SW) 3,307 6.9 -8.6°
